Photometre #851[NE_1.6_Dp] Glasgow_MO AOT

File : 20220825_851.hum

25/08/2022,06:14:14,TEMP=11.8,BA=5.64,STAT.A,ExtBa=12.10
25/08/2022,06:18:23,TEMP=12.2,BA=5.64,STAT.D,ExtBa=12.10
25/08/2022,06:20:23,TEMP=12.7,BA=5.64,STAT.A,ExtBa=12.10
25/08/2022,06:24:09,TEMP=12.6,BA=5.64,STAT.A,ExtBa=12.10
25/08/2022,06:27:23,TEMP=12.6,BA=5.64,STAT.D,ExtBa=12.10
25/08/2022,06:30:23,TEMP=12.7,BA=5.64,STAT.D,ExtBa=12.00
25/08/2022,06:32:22,TEMP=13.0,BA=5.64,STAT.A,ExtBa=12.00
25/08/2022,06:36:23,TEMP=12.8,BA=5.64,STAT.D,ExtBa=12.00
25/08/2022,06:38:22,TEMP=13.2,BA=5.64,STAT.A,ExtBa=12.00
25/08/2022,06:42:23,TEMP=13.2,BA=5.64,STAT.D,ExtBa=12.00
25/08/2022,06:45:23,TEMP=13.4,BA=5.64,STAT.D,ExtBa=12.00
25/08/2022,06:47:27,TEMP=13.8,BA=5.64,STAT.A,ExtBa=12.00
25/08/2022,06:51:23,TEMP=13.9,BA=5.64,STAT.D,ExtBa=12.00
25/08/2022,06:54:23,TEMP=14.1,BA=5.64,STAT.D,ExtBa=12.00
25/08/2022,06:57:23,TEMP=14.2,BA=5.64,STAT.D,ExtBa=12.00
25/08/2022,06:59:24,TEMP=14.6,BA=5.64,STAT.B,ExtBa=12.00
25/08/2022,07:08:59,TEMP=15.9,BA=5.64,STAT.A,ExtBa=11.90
25/08/2022,07:11:40,TEMP=16.0,BA=5.60,STAT.A,ExtBa=12.00
25/08/2022,07:17:49,TEMP=16.1,BA=5.60,STAT.A,ExtBa=12.00
25/08/2022,07:25:45,TEMP=16.0,BA=5.64,STAT.A,ExtBa=12.00
25/08/2022,07:30:24,TEMP=16.1,BA=5.64,STAT.D,ExtBa=12.00
25/08/2022,07:34:51,TEMP=16.3,BA=5.64,STAT.C,ExtBa=12.00
25/08/2022,07:45:23,TEMP=16.4,BA=5.64,STAT.A,ExtBa=12.00
25/08/2022,07:48:24,TEMP=16.7,BA=5.64,STAT.D,ExtBa=12.00
25/08/2022,07:51:24,TEMP=16.9,BA=5.60,STAT.D,ExtBa=12.00
25/08/2022,07:54:24,TEMP=17.0,BA=5.60,STAT.D,ExtBa=12.00
25/08/2022,07:57:24,TEMP=17.0,BA=5.60,STAT.D,ExtBa=12.00
25/08/2022,07:59:24,TEMP=17.3,BA=5.60,STAT.A,ExtBa=12.00
25/08/2022,08:03:24,TEMP=17.0,BA=5.60,STAT.D,ExtBa=12.00
25/08/2022,08:06:24,TEMP=17.3,BA=5.60,STAT.D,ExtBa=12.00
25/08/2022,08:09:24,TEMP=17.4,BA=5.60,STAT.D,ExtBa=12.00
25/08/2022,08:12:24,TEMP=17.7,BA=5.60,STAT.D,ExtBa=12.00
25/08/2022,08:14:24,TEMP=18.1,BA=5.60,STAT.A,ExtBa=12.00
25/08/2022,08:18:24,TEMP=17.9,BA=5.60,STAT.D,ExtBa=12.00
25/08/2022,08:21:24,TEMP=18.1,BA=5.64,STAT.D,ExtBa=12.00
25/08/2022,08:24:24,TEMP=18.2,BA=5.64,STAT.D,ExtBa=12.00
25/08/2022,08:27:24,TEMP=18.3,BA=5.64,STAT.D,ExtBa=12.00
25/08/2022,08:30:24,TEMP=18.4,BA=5.64,STAT.D,ExtBa=12.00
25/08/2022,08:32:24,TEMP=18.8,BA=5.64,STAT.A,ExtBa=12.00
25/08/2022,08:42:24,TEMP=18.4,BA=5.64,STAT.D,ExtBa=12.00
25/08/2022,08:54:10,TEMP=17.8,BA=5.64,STAT.B,ExtBa=12.10
25/08/2022,09:05:57,TEMP=17.1,BA=5.64,STAT.D,ExtBa=12.10
25/08/2022,09:18:24,TEMP=16.8,BA=5.64,STAT.D,ExtBa=12.10
25/08/2022,09:20:59,TEMP=17.2,BA=5.64,STAT.F,ExtBa=12.00
25/08/2022,09:33:24,TEMP=17.4,BA=5.64,STAT.D,ExtBa=12.10
25/08/2022,09:35:57,TEMP=17.7,BA=5.64,STAT.D,ExtBa=12.10
25/08/2022,09:48:24,TEMP=17.7,BA=5.64,STAT.D,ExtBa=12.10
25/08/2022,09:50:57,TEMP=18.0,BA=5.64,STAT.D,ExtBa=12.10
25/08/2022,10:03:24,TEMP=18.1,BA=5.64,STAT.D,ExtBa=12.10
25/08/2022,10:05:57,TEMP=18.5,BA=5.64,STAT.D,ExtBa=12.10
25/08/2022,10:18:24,TEMP=18.4,BA=5.64,STAT.D,ExtBa=12.10
25/08/2022,10:20:59,TEMP=18.7,BA=5.56,STAT.F,ExtBa=12.00
25/08/2022,10:27:24,TEMP=18.4,BA=5.56,STAT.D,ExtBa=12.10
25/08/2022,10:35:57,TEMP=17.9,BA=5.64,STAT.D,ExtBa=12.10
25/08/2022,10:48:25,TEMP=17.6,BA=5.64,STAT.D,ExtBa=12.10
25/08/2022,10:50:58,TEMP=17.8,BA=5.64,STAT.D,ExtBa=12.10
25/08/2022,11:03:25,TEMP=17.8,BA=5.64,STAT.D,ExtBa=12.10
25/08/2022,11:05:58,TEMP=18.2,BA=5.64,STAT.D,ExtBa=12.10
25/08/2022,11:18:25,TEMP=17.9,BA=5.64,STAT.D,ExtBa=12.10
25/08/2022,11:20:59,TEMP=18.1,BA=5.64,STAT.F,ExtBa=12.10
25/08/2022,11:33:25,TEMP=17.6,BA=5.64,STAT.D,ExtBa=12.10
25/08/2022,11:35:58,TEMP=17.8,BA=5.64,STAT.D,ExtBa=12.10
25/08/2022,11:48:25,TEMP=17.6,BA=5.64,STAT.D,ExtBa=12.10
25/08/2022,11:50:58,TEMP=17.9,BA=5.56,STAT.D,ExtBa=12.10
25/08/2022,12:03:25,TEMP=18.4,BA=5.64,STAT.D,ExtBa=12.10
25/08/2022,12:05:58,TEMP=19.2,BA=5.64,STAT.D,ExtBa=12.00
25/08/2022,12:09:25,TEMP=19.7,BA=5.64,STAT.D,ExtBa=12.00
25/08/2022,12:12:25,TEMP=20.1,BA=5.56,STAT.D,ExtBa=12.00
25/08/2022,12:15:25,TEMP=20.5,BA=5.56,STAT.D,ExtBa=12.00
25/08/2022,12:18:25,TEMP=20.8,BA=5.56,STAT.D,ExtBa=12.00
25/08/2022,12:20:59,TEMP=21.0,BA=5.64,STAT.F,ExtBa=12.00
25/08/2022,12:45:01,TEMP=22.5,BA=5.56,STAT.D,ExtBa=12.00
25/08/2022,12:48:25,TEMP=22.2,BA=5.56,STAT.D,ExtBa=12.00
25/08/2022,12:50:58,TEMP=22.3,BA=5.60,STAT.D,ExtBa=12.00
25/08/2022,12:54:25,TEMP=22.2,BA=5.60,STAT.D,ExtBa=12.00
25/08/2022,12:57:25,TEMP=22.2,BA=5.60,STAT.D,ExtBa=12.00
25/08/2022,13:00:24,TEMP=22.2,BA=5.64,STAT.D,ExtBa=12.00
25/08/2022,13:03:25,TEMP=22.2,BA=5.64,STAT.D,ExtBa=12.00
25/08/2022,13:05:58,TEMP=22.4,BA=5.64,STAT.D,ExtBa=12.00
25/08/2022,13:09:25,TEMP=22.2,BA=5.64,STAT.D,ExtBa=12.00
25/08/2022,13:12:25,TEMP=22.1,BA=5.56,STAT.D,ExtBa=12.00
25/08/2022,13:15:25,TEMP=21.7,BA=5.56,STAT.D,ExtBa=12.00
25/08/2022,13:18:25,TEMP=21.4,BA=5.56,STAT.D,ExtBa=12.00
25/08/2022,13:20:59,TEMP=21.2,BA=5.56,STAT.F,ExtBa=12.00
25/08/2022,13:45:55,TEMP=22.0,BA=5.56,STAT.D,ExtBa=12.00
25/08/2022,13:50:58,TEMP=21.8,BA=5.64,STAT.D,ExtBa=12.00
25/08/2022,13:54:25,TEMP=21.9,BA=5.64,STAT.D,ExtBa=12.00
25/08/2022,13:57:25,TEMP=22.1,BA=5.64,STAT.D,ExtBa=12.00
25/08/2022,14:00:25,TEMP=22.2,BA=5.64,STAT.D,ExtBa=12.00
25/08/2022,14:03:24,TEMP=22.1,BA=5.64,STAT.D,ExtBa=12.00
25/08/2022,14:05:57,TEMP=22.0,BA=5.64,STAT.D,ExtBa=12.00
25/08/2022,14:09:24,TEMP=21.8,BA=5.64,STAT.D,ExtBa=12.00
25/08/2022,14:12:25,TEMP=21.8,BA=5.56,STAT.D,ExtBa=12.00
25/08/2022,14:15:24,TEMP=21.7,BA=5.56,STAT.D,ExtBa=12.00
25/08/2022,14:18:24,TEMP=21.7,BA=5.56,STAT.D,ExtBa=12.00
25/08/2022,14:20:59,TEMP=21.7,BA=5.60,STAT.F,ExtBa=12.00
25/08/2022,14:44:47,TEMP=21.4,BA=5.52,STAT.D,ExtBa=11.90
25/08/2022,14:48:24,TEMP=20.9,BA=5.52,STAT.D,ExtBa=12.00
25/08/2022,14:50:57,TEMP=21.2,BA=5.60,STAT.D,ExtBa=12.00
25/08/2022,14:54:24,TEMP=21.2,BA=5.60,STAT.D,ExtBa=12.00
25/08/2022,14:57:24,TEMP=21.3,BA=5.60,STAT.D,ExtBa=12.00
25/08/2022,15:00:24,TEMP=21.4,BA=5.64,STAT.D,ExtBa=12.00
25/08/2022,15:03:24,TEMP=21.5,BA=5.64,STAT.D,ExtBa=12.00
25/08/2022,15:05:57,TEMP=21.7,BA=5.64,STAT.D,ExtBa=12.00
25/08/2022,15:09:24,TEMP=21.8,BA=5.64,STAT.D,ExtBa=12.00
25/08/2022,15:12:24,TEMP=21.9,BA=5.56,STAT.D,ExtBa=12.00
25/08/2022,15:15:24,TEMP=21.9,BA=5.56,STAT.D,ExtBa=12.00
25/08/2022,15:18:24,TEMP=22.0,BA=5.56,STAT.D,ExtBa=12.00
25/08/2022,15:20:59,TEMP=22.0,BA=5.52,STAT.F,ExtBa=12.00
25/08/2022,15:45:58,TEMP=21.2,BA=5.52,STAT.D,ExtBa=11.90
25/08/2022,15:53:38,TEMP=20.4,BA=5.52,STAT.B,ExtBa=12.00
25/08/2022,16:03:24,TEMP=21.1,BA=5.52,STAT.D,ExtBa=11.90
25/08/2022,16:06:24,TEMP=20.8,BA=5.52,STAT.D,ExtBa=11.90
25/08/2022,16:09:24,TEMP=20.8,BA=5.52,STAT.D,ExtBa=12.00
25/08/2022,16:11:26,TEMP=20.8,BA=5.52,STAT.A,ExtBa=11.90
25/08/2022,16:24:24,TEMP=19.5,BA=5.64,STAT.D,ExtBa=12.00
25/08/2022,16:29:17,TEMP=19.3,BA=5.64,STAT.A,ExtBa=12.00
25/08/2022,16:42:24,TEMP=18.3,BA=5.64,STAT.D,ExtBa=12.00
25/08/2022,16:44:23,TEMP=18.6,BA=5.64,STAT.A,ExtBa=12.00
25/08/2022,16:56:33,TEMP=17.7,BA=5.56,STAT.A,ExtBa=12.00
25/08/2022,17:07:05,TEMP=17.4,BA=5.64,STAT.C,ExtBa=12.00
25/08/2022,17:16:11,TEMP=17.3,BA=5.64,STAT.A,ExtBa=12.00
25/08/2022,17:27:23,TEMP=17.3,BA=5.64,STAT.D,ExtBa=12.00
25/08/2022,17:31:06,TEMP=17.3,BA=5.64,STAT.A,ExtBa=12.00
25/08/2022,17:37:20,TEMP=17.1,BA=5.64,STAT.A,ExtBa=12.00
25/08/2022,17:42:54,TEMP=17.0,BA=5.64,STAT.B,ExtBa=12.00
25/08/2022,17:54:23,TEMP=16.6,BA=5.64,STAT.D,ExtBa=12.00
25/08/2022,17:56:23,TEMP=16.9,BA=5.64,STAT.A,ExtBa=12.00
25/08/2022,18:03:53,TEMP=16.4,BA=5.64,STAT.A,ExtBa=12.00
25/08/2022,18:11:28,TEMP=16.3,BA=5.64,STAT.A,ExtBa=12.00
25/08/2022,18:17:47,TEMP=16.3,BA=5.64,STAT.A,ExtBa=12.00
25/08/2022,18:23:07,TEMP=16.3,BA=5.64,STAT.A,ExtBa=12.00
25/08/2022,18:27:42,TEMP=16.4,BA=5.64,STAT.A,ExtBa=12.00